DW0333 Tranby-Lier NO current weather conditions

sailwx.info

Wind from 226 at 4 knots

Air temperature 2.2° C
Dewpoint 0.8° C

Last reported at 2016-Apr-29 07:45 UTC.
Time now 2016-Apr-29 08:10 UTC

Location: N 59°50' E 010°17'.
View on Google Maps.

See reports from other nearby stations

  
Tides and Currents Weather Stations Pressure Air Temp Water Temp Dewpoint Dewpoint Depression Visibility Wind Speed Wind Dir Waves Ship Positions
date/time (UTC)wind fromknots sea level pressurealtimeterstation pressurevisibilityair tempwater tempwave heightnotes
2016-Apr-29 07:45 226 4 2.2
2016-Apr-29 07:31 161 5 1.7
2016-Apr-29 07:15 144 4 1.1
2016-Apr-29 07:01 146 2 1.1
2016-Apr-29 06:45 170 0.6
2016-Apr-29 06:28 287 0.6
2016-Apr-29 06:13 290 -0.0
2016-Apr-29 05:58 291 -0.0
2016-Apr-29 05:43 291 -0.0
2016-Apr-29 05:27 292 -0.0
2016-Apr-29 05:12 292 -0.0
2016-Apr-29 04:57 292 -0.0
2016-Apr-29 04:42 292 -0.0
2016-Apr-29 04:27 292 -0.0
2016-Apr-29 04:11 292 -0.0
2016-Apr-29 03:56 294 -0.0
2016-Apr-29 03:41 294 -0.0
2016-Apr-29 03:25 294 -0.0
2016-Apr-29 03:10 294 -0.0
2016-Apr-29 02:55 294 -0.0
2016-Apr-29 02:40 294 -0.0
2016-Apr-29 02:25 294 -0.0
2016-Apr-29 02:10 294 -0.6
2016-Apr-29 01:55 294 2 -0.6
2016-Apr-29 01:40 294 3 -0.6
2016-Apr-29 01:25 292 2 -0.6
2016-Apr-29 01:08 285 3 -0.0
2016-Apr-29 00:53 288 2 -0.0
2016-Apr-29 00:37 267 2 -0.0
2016-Apr-29 00:22 280 2 -0.0
2016-Apr-29 00:07 276 2 -0.0
2016-Apr-28 23:52 308 1 -0.0
2016-Apr-28 23:37 305 2 -0.0
2016-Apr-28 23:21 321 3 -0.0
2016-Apr-28 23:06 046 3 -0.0
2016-Apr-28 22:51 322 3 0.6
2016-Apr-28 22:35 328 4 0.6
2016-Apr-28 22:20 276 4 0.6
2016-Apr-28 22:05 292 3 0.6
2016-Apr-28 21:50 313 3 0.6
2016-Apr-28 21:35 286 4 1.1
2016-Apr-28 21:20 295 5 1.1
2016-Apr-28 21:05 290 5 1.7
2016-Apr-28 20:50 314 2 1.7
2016-Apr-28 20:35 027 3 2.2
2016-Apr-28 20:18 323 2 2.2
2016-Apr-28 20:03 299 3 2.8
2016-Apr-28 19:48 290 1 3.3
2016-Apr-28 19:33 295 1 3.9
2016-Apr-28 19:18 352 0 3.9
2016-Apr-28 19:03 314 1 3.9
2016-Apr-28 18:48 358 0 4.4
2016-Apr-28 18:33 321 0 4.4
2016-Apr-28 18:18 325 0 5.0
2016-Apr-28 18:03 359 0 5.0
2016-Apr-28 17:48 331 0 5.0
2016-Apr-28 17:33 342 1 5.6
2016-Apr-28 17:17 333 0 5.6
2016-Apr-28 17:02 032 0 6.1
2016-Apr-28 16:47 326 1 6.1
2016-Apr-28 16:31 323 0 6.1
2016-Apr-28 16:16 270 1 6.1
2016-Apr-28 16:01 327 1 6.1
2016-Apr-28 15:46 298 0 5.6
2016-Apr-28 15:31 034 3 5.6
2016-Apr-28 15:15 295 2 6.1
2016-Apr-28 15:01 313 1 6.1
2016-Apr-28 14:45 279 2 7.8
2016-Apr-28 14:31 066 1 8.3
2016-Apr-28 14:15 004 0 8.3
2016-Apr-28 14:01 311 2 8.9
2016-Apr-28 13:45 020 1 8.3
2016-Apr-28 13:28 048 2 7.8
2016-Apr-28 13:13 342 2 8.3
2016-Apr-28 12:58 313 2 7.8
2016-Apr-28 12:43 317 2 7.8
2016-Apr-28 12:28 028 2 7.8
2016-Apr-28 12:12 059 4 7.2
2016-Apr-28 11:57 032 3 7.2
2016-Apr-28 11:41 074 2 6.7
2016-Apr-28 11:26 068 4 6.1
2016-Apr-28 11:11 025 2 5.6
2016-Apr-28 10:56 011 2 5.0
2016-Apr-28 10:40 161 2 4.4
2016-Apr-28 10:25 321 0 4.4
2016-Apr-28 10:10 034 2 3.9
2016-Apr-28 09:55 162 2 3.3
2016-Apr-28 09:40 055 2 2.8
2016-Apr-28 09:25 017 2 2.2
2016-Apr-28 09:10 111 1 2.2
2016-Apr-28 08:53 347 1 2.2
2016-Apr-28 08:38 057 1 2.2
2016-Apr-28 08:23 062 1 2.2
2016-Apr-28 08:08 083 2 2.2
2016-Apr-28 07:52 360 1 2.2
2016-Apr-28 07:37 055 1 1.7
2016-Apr-28 07:22 025 1 1.1
2016-Apr-28 07:07 047 2 1.1
2016-Apr-28 06:51 040 2 1.1
2016-Apr-28 06:36 275 1 1.1
2016-Apr-28 06:21 040 1 1.7
2016-Apr-28 06:06 031 0 1.1
2016-Apr-28 05:50 084 1 1.1
2016-Apr-28 05:35 121 2 1.1
2016-Apr-28 05:20 063 0 0.6
2016-Apr-28 05:05 027 0 0.6
2016-Apr-28 04:50 039 1 -0.0
2016-Apr-28 04:35 034 1 -0.0
2016-Apr-28 04:20 015 1 -0.0
2016-Apr-28 04:05 064 1 -0.0
2016-Apr-28 03:48 031 -0.0
2016-Apr-28 03:33 013 0 -0.0
2016-Apr-28 03:18 034 1 -0.0
2016-Apr-28 03:03 035 0 -0.0
2016-Apr-28 02:47 074 1 -0.0
2016-Apr-28 02:32 040 0 -0.0
2016-Apr-28 02:17 065 0 -0.0
2016-Apr-28 02:02 093 0 -0.0
2016-Apr-28 01:46 046 1 -0.0
2016-Apr-28 01:31 038 1 -0.0
2016-Apr-28 01:16 073 1 -0.0
2016-Apr-28 01:01 027 2 -0.0
2016-Apr-28 00:45 040 1 0.6
2016-Apr-28 00:31 042 1 0.6
2016-Apr-28 00:15 064 1 1.1
2016-Apr-28 00:01 053 1 1.7
2016-Apr-27 23:45 065 3 1.7
2016-Apr-27 23:31 092 1 1.7
2016-Apr-27 23:15 104 2 2.2
2016-Apr-27 23:01 142 2 2.2
2016-Apr-27 22:43 102 3 1.7
2016-Apr-27 22:28 082 2 1.7
2016-Apr-27 22:13 059 3 2.2
2016-Apr-27 21:57 044 2 2.2
2016-Apr-27 21:42 101 2 2.8
2016-Apr-27 21:27 081 3 2.8
2016-Apr-27 21:12 046 2 2.8
2016-Apr-27 20:57 093 1 2.8
2016-Apr-27 20:41 133 1 2.8
2016-Apr-27 20:26 143 2 3.3
2016-Apr-27 20:11 131 1 3.3
2016-Apr-27 19:55 135 2 3.9
2016-Apr-27 19:40 134 2 3.9
2016-Apr-27 19:25 116 2 4.4
2016-Apr-27 19:10 105 1 5.0
2016-Apr-27 18:55 109 1 6.1
2016-Apr-27 18:40 221 1 6.1
2016-Apr-27 18:25 236 2 6.7
2016-Apr-27 18:10 306 1 7.2
2016-Apr-27 17:53 212 1 7.8
2016-Apr-27 17:38 207 1 8.9
2016-Apr-27 17:23 175 1 8.9
2016-Apr-27 17:08 161 1 9.4
2016-Apr-27 16:53 140 1 9.4
2016-Apr-27 16:37 250 1 10.0
2016-Apr-27 16:22 295 1 10.0
2016-Apr-27 16:07 197 2 9.4
2016-Apr-27 15:52 175 2 9.4
2016-Apr-27 15:36 059 3 10.0
2016-Apr-27 15:21 100 2 9.4
2016-Apr-27 15:06 143 2 10.0
2016-Apr-27 14:51 036 3 10.0
2016-Apr-27 14:35 183 3 10.0
2016-Apr-27 14:20 259 5 10.0
2016-Apr-27 14:05 298 3 10.0
2016-Apr-27 13:50 244 4 10.0
2016-Apr-27 13:35 277 5 9.4
2016-Apr-27 13:20 279 4 8.3
2016-Apr-27 13:05 193 1 7.8
2016-Apr-27 12:48 298 5 7.2
2016-Apr-27 12:33 321 4 8.3
2016-Apr-27 12:18 267 1 7.8
2016-Apr-27 12:03 284 2 7.8
2016-Apr-27 11:48 299 1 8.3
2016-Apr-27 11:32 242 2 8.3
2016-Apr-27 11:17 038 1 7.2
2016-Apr-27 11:02 062 1 7.2
2016-Apr-27 10:47 044 2 7.8
2016-Apr-27 10:31 265 2 7.2
2016-Apr-27 10:16 338 2 6.1
2016-Apr-27 10:01 109 2 6.7
2016-Apr-27 09:46 051 1 6.1
2016-Apr-27 09:31 336 1 5.6
2016-Apr-27 09:15 286 1 5.6
2016-Apr-27 09:01 304 4 5.0
2016-Apr-27 08:45 294 6 5.0
2016-Apr-27 08:31 291 4 4.4
2016-Apr-27 08:15 283 6 3.9
2016-Apr-27 08:01 290 5 3.9